Location: Arnolds Mill
(42.3415°N, 73.5951°W)
Time: 05:05:56
(UTC+00:00)

Oscar 11 - Pass Details

Date: 13 May 2026
Orbit: 591 x 601 km, 97.8° (Epoch: 11 June)

Event Time Altitude Azimuth Distance (km) Brightness Sun altitude
Rises 08:08:23 0° 17° (NNE) 2,860 11.6 -14.1°
Reaches altitude 10° 08:10:37 10° 23° (NNE) 1,952 10.7 -13.8°
Maximum altitude 08:14:45 52° 100° (E) 754 7.7 -13.2°
Drops below altitude 10° 08:18:51 10° 177° (S) 1,933 9.3 -12.6°
Enters shadow 08:19:41 - 179° (S) 2,266 9.6 -12.5°
